Location: Tamazert
(32.6352°N, 5.2072°W)
Time: 20:41:21
(UTC+00:00)

Transit 2A Rocket - Pass Details

Date: 08 October 2022
Orbit: 589 x 911 km, 66.7° (Epoch: 28 November)

Event Time Altitude Azimuth Distance (km) Brightness Sun altitude
Rises 13:57:36 0° 335° (NNW) 3,084 7.9 43.4°
Reaches altitude 10° 13:59:51 10° 336° (NNW) 2,211 7.3 43.1°
Maximum altitude 14:04:56 83° 65° (ENE) 781 5.7 42.4°
Drops below altitude 10° 14:10:30 10° 153° (SSE) 2,416 7.9 41.7°
Sets 14:13:03 0° 154° (SSE) 3,392 8.6 41.3°
